| time (UTC) | temp C | wind direction | speed KPH | gust KPH | rain 1hr cm | rain 24hr cm | rain mn cm | humidity % | barometer mb |
| 20260507171553 | 20 | 203 | 6.4 | 11.3 | 0.00 | 0.36 | 0.36 | 66 | 1009.7 |
| 20260507170609 | 20 | 248 | 6.4 | 11.3 | 0.00 | 0.36 | 0.36 | 66 | 1009.6 |
| 20260507165552 | 20 | 293 | 8.0 | 12.9 | 0.00 | 0.36 | 0.36 | 65 | 1009.4 |
| 20260507164610 | 20 | 248 | 8.0 | 12.9 | 0.00 | 0.36 | 0.36 | 66 | 1009.3 |
| 20260507163555 | 20 | 158 | 4.8 | 9.7 | 0.00 | 0.36 | 0.36 | 68 | 1009.3 |
| 20260507162609 | 20 | 225 | 6.4 | 11.3 | 0.00 | 0.36 | 0.36 | 69 | 1009.2 |
| 20260507161555 | 20 | 225 | 4.8 | 8.0 | 0.00 | 0.36 | 0.36 | 70 | 1009.2 |
| 20260507155554 | 18 | 203 | 8.0 | 12.9 | 0.20 | 0.36 | 0.36 | 79 | 1009.3 |
| 20260507153554 | 17 | 135 | 8.0 | 14.5 | 0.30 | 0.36 | 0.36 | 86 | 1009.4 |
| 20260507152609 | 16 | 135 | 9.7 | 17.7 | 0.33 | 0.36 | 0.36 | 88 | 1009.5 |
| 20260507150609 | 16 | 135 | 8.0 | 12.9 | 0.15 | 0.15 | 0.15 | 87 | 1010.1 |
| 20260507145552 | 17 | 0 | 12.9 | 22.5 | 0.10 | 0.10 | 0.10 | 83 | 1010.1 |
| 20260507143553 | 20 | 270 | 0.0 | 3.2 | 0.03 | 0.03 | 0.03 | 73 | 1010.0 |
| 20260507142610 | 19 | 293 | 3.2 | 6.4 | 0.00 | 0.00 | 0.00 | 70 | 1010.1 |
| 20260507140610 | 18 | 293 | 3.2 | 6.4 | 0.00 | 0.00 | 0.00 | 71 | 1010.0 |
| 20260507134610 | 19 | 293 | 3.2 | 6.4 | 0.00 | 0.00 | 0.00 | 71 | 1009.7 |
| 20260507133552 | 19 | 0 | 3.2 | 8.0 | 0.00 | 0.00 | 0.00 | 70 | 1009.8 |
| 20260507132610 | 20 | 135 | 4.8 | 9.7 | 0.00 | 0.00 | 0.00 | 70 | 1009.8 |
| 20260507131553 | 19 | 158 | 11.3 | 14.5 | 0.00 | 0.00 | 0.00 | 70 | 1009.7 |
| 20260507130611 | 19 | 68 | 4.8 | 9.7 | 0.00 | 0.00 | 0.00 | 68 | 1009.7 |
| 20260507123555 | 20 | 293 | 8.0 | 11.3 | 0.00 | 0.00 | 0.00 | 71 | 1009.8 |
| 20260507122611 | 20 | 135 | 8.0 | 14.5 | 0.00 | 0.00 | 0.00 | 71 | 1009.8 |
| 20260507120609 | 20 | 293 | 9.7 | 17.7 | 0.00 | 0.00 | 0.00 | 71 | 1010.1 |
| 20260507115553 | 21 | 203 | 8.0 | 14.5 | 0.00 | 0.00 | 0.00 | 69 | 1010.2 |
| 20260507114610 | 22 | 248 | 4.8 | 9.7 | 0.00 | 0.00 | 0.00 | 68 | 1010.1 |
| 20260507113553 | 21 | 315 | 11.3 | 14.5 | 0.00 | 0.00 | 0.00 | 72 | 1010.1 |
| 20260507111553 | 21 | 315 | 11.3 | 17.7 | 0.00 | 0.00 | 0.00 | 71 | 1010.2 |
| 20260507105555 | 21 | 315 | 9.7 | 14.5 | 0.00 | 0.00 | 0.00 | 71 | 1010.3 |
| 20260507103553 | 20 | 338 | 11.3 | 14.5 | 0.00 | 0.00 | 0.00 | 70 | 1010.4 |
| 20260507102610 | 21 | 315 | 6.4 | 11.3 | 0.00 | 0.00 | 0.00 | 69 | 1010.4 |
| 20260507100610 | 21 | 248 | 6.4 | 12.9 | 0.00 | 0.00 | 0.00 | 70 | 1010.5 |
| 20260507095555 | 21 | 315 | 8.0 | 9.7 | 0.00 | 0.00 | 0.00 | 70 | 1010.5 |
| 20260507094610 | 21 | 180 | 6.4 | 8.0 | 0.00 | 0.00 | 0.00 | 69 | 1010.6 |
| 20260507093554 | 21 | 135 | 4.8 | 9.7 | 0.00 | 0.00 | 0.00 | 68 | 1010.6 |
| 20260507092609 | 20 | 315 | 3.2 | 6.4 | 0.00 | 0.00 | 0.00 | 70 | 1010.6 |
| 20260507091553 | 21 | 180 | 4.8 | 9.7 | 0.00 | 0.00 | 0.00 | 66 | 1010.6 |
| 20260507085553 | 21 | 225 | 8.0 | 14.5 | 0.00 | 0.00 | 0.00 | 66 | 1010.6 |
| 20260507084612 | 20 | 135 | 3.2 | 8.0 | 0.00 | 0.00 | 0.00 | 68 | 1010.5 |
| 20260507083553 | 21 | 68 | 3.2 | 6.4 | 0.00 | 0.00 | 0.00 | 67 | 1010.5 |
| 20260507082610 | 20 | 293 | 4.8 | 9.7 | 0.00 | 0.00 | 0.00 | 66 | 1010.4 |
| 20260507080610 | 19 | 248 | 4.8 | 8.0 | 0.00 | 0.00 | 0.00 | 70 | 1010.5 |
| 20260507075553 | 19 | 158 | 8.0 | 9.7 | 0.00 | 0.00 | 0.00 | 72 | 1010.5 |
| 20260507073552 | 18 | 248 | 8.0 | 12.9 | 0.00 | 0.00 | 0.00 | 75 | 1010.6 |
| 20260507071553 | 17 | 203 | 3.2 | 8.0 | 0.00 | 0.00 | 0.00 | 78 | 1010.6 |
| 20260507065553 | 17 | 180 | 6.4 | 11.3 | 0.00 | 0.00 | 0.00 | 79 | 1010.4 |
| 20260507064609 | 17 | 270 | 6.4 | 9.7 | 0.00 | 0.00 | 0.00 | 79 | 1010.4 |
| 20260507063553 | 17 | 248 | 4.8 | 8.0 | 0.00 | 0.00 | 0.00 | 80 | 1010.4 |
| 20260507062611 | 16 | 225 | 6.4 | 11.3 | 0.00 | 0.00 | 0.00 | 80 | 1010.5 |
| 20260507061556 | 16 | 203 | 4.8 | 9.7 | 0.00 | 0.00 | 0.00 | 80 | 1010.3 |
| 20260507060610 | 16 | 180 | 8.0 | 11.3 | 0.00 | 0.00 | 0.00 | 81 | 1010.0 |
| 20260507055554 | 16 | 180 | 8.0 | 11.3 | 0.00 | 0.00 | 0.00 | 81 | 1009.9 |
| 20260507054610 | 16 | 203 | 8.0 | 11.3 | 0.00 | 0.00 | 0.00 | 81 | 1009.9 |
| 20260507053556 | 16 | 135 | 8.0 | 12.9 | 0.00 | 0.00 | 0.00 | 81 | 1009.9 |
| 20260507052610 | 16 | 135 | 6.4 | 9.7 | 0.00 | 0.00 | 0.00 | 81 | 1009.7 |
| 20260507051554 | 16 | 135 | 6.4 | 9.7 | 0.00 | 0.00 | 0.00 | 81 | 1009.8 |
| 20260507045554 | 16 | 113 | 6.4 | 11.3 | 0.00 | 0.00 | 0.00 | 82 | 1009.6 |
| 20260507044609 | 15 | 158 | 3.2 | 6.4 | 0.00 | 0.00 | 0.00 | 82 | 1009.5 |
| 20260507043554 | 15 | 135 | 6.4 | 8.0 | 0.00 | 0.00 | 0.00 | 82 | 1009.3 |
| 20260507042610 | 15 | 158 | 4.8 | 8.0 | 0.00 | 0.00 | 0.00 | 81 | 1009.3 |
| 20260507041553 | 15 | 158 | 6.4 | 11.3 | 0.00 | 0.00 | 0.00 | 81 | 1009.2 |
| 20260507040610 | 16 | 293 | 8.0 | 11.3 | 0.00 | 0.00 | 0.00 | 80 | 1009.3 |
| 20260507035555 | 16 | 203 | 6.4 | 8.0 | 0.00 | 0.00 | 0.00 | 80 | 1009.5 |
| 20260507034610 | 16 | 158 | 8.0 | 9.7 | 0.00 | 0.00 | 0.00 | 80 | 1009.3 |
| 20260507033553 | 16 | 203 | 6.4 | 9.7 | 0.00 | 0.00 | 0.00 | 79 | 1009.3 |
| 20260507032610 | 16 | 135 | 4.8 | 8.0 | 0.00 | 0.00 | 0.00 | 78 | 1009.4 |
| 20260507031554 | 16 | 158 | 6.4 | 8.0 | 0.00 | 0.00 | 0.00 | 78 | 1009.4 |
| 20260507030610 | 16 | 203 | 4.8 | 9.7 | 0.00 | 0.00 | 0.00 | 78 | 1009.4 |
| 20260507024613 | 16 | 158 | 4.8 | 6.4 | 0.00 | 0.00 | 0.00 | 77 | 1009.4 |
| 20260507023552 | 16 | 180 | 6.4 | 9.7 | 0.00 | 0.00 | 0.00 | 76 | 1009.0 |
| 20260507022610 | 17 | 248 | 6.4 | 9.7 | 0.00 | 0.00 | 0.00 | 75 | 1009.2 |
| 20260507021553 | 17 | 180 | 6.4 | 11.3 | 0.00 | 0.00 | 0.00 | 74 | 1009.2 |
| 20260507020610 | 17 | 158 | 6.4 | 8.0 | 0.00 | 0.00 | 0.00 | 73 | 1009.4 |
| 20260507015553 | 17 | 225 | 3.2 | 3.2 | 0.00 | 0.00 | 0.00 | 73 | 1009.5 |
| 20260507013553 | 17 | 248 | 3.2 | 6.4 | 0.00 | 0.00 | 0.00 | 73 | 1009.9 |
| 20260507012611 | 17 | 270 | 3.2 | 3.2 | 0.00 | 0.00 | 0.00 | 73 | 1009.8 |
| 20260507010610 | 17 | 203 | 4.8 | 8.0 | 0.00 | 0.00 | 0.00 | 74 | 1010.1 |
| 20260507004610 | 17 | 225 | 4.8 | 8.0 | 0.00 | 0.00 | 0.00 | 79 | 1010.1 |
| 20260507002610 | 17 | 225 | 3.2 | 6.4 | 0.00 | 0.00 | 0.00 | 79 | 1010.2 |
| 20260507000610 | 17 | 180 | 0.0 | 3.2 | 0.00 | 0.00 | 0.00 | 79 | 1010.1 |
| 20260506235554 | 17 | 180 | 1.6 | 3.2 | 0.00 | 0.00 | 0.00 | 79 | 1010.2 |
| 20260506234610 | 18 | 248 | 1.6 | 3.2 | 0.00 | 0.00 | 0.00 | 79 | 1010.1 |
| 20260506233554 | 18 | 180 | 3.2 | 3.2 | 0.00 | 0.00 | 0.00 | 79 | 1010.3 |
| 20260506232610 | 18 | 203 | 3.2 | 3.2 | 0.00 | 0.00 | 0.00 | 78 | 1010.3 |
| 20260506231554 | 18 | 203 | 3.2 | 8.0 | 0.00 | 0.00 | 0.00 | 78 | 1010.3 |
| 20260506230610 | 18 | 203 | 3.2 | 6.4 | 0.00 | 0.00 | 0.00 | 79 | 1010.3 |
| 20260506224612 | 18 | 203 | 3.2 | 6.4 | 0.00 | 0.00 | 0.00 | 79 | 1010.6 |
| 20260506223554 | 18 | 293 | 3.2 | 3.2 | 0.00 | 0.00 | 0.00 | 79 | 1010.7 |
| 20260506222610 | 18 | 248 | 3.2 | 6.4 | 0.00 | 0.00 | 0.00 | 79 | 1010.7 |
| 20260506221553 | 18 | 225 | 3.2 | 6.4 | 0.00 | 0.00 | 0.00 | 79 | 1010.7 |
| 20260506220612 | 18 | 248 | 3.2 | 8.0 | 0.00 | 0.00 | 0.00 | 78 | 1010.6 |
| 20260506213553 | 18 | 225 | 3.2 | 3.2 | 0.00 | 0.00 | 0.00 | 78 | 1010.9 |
| 20260506210610 | 18 | 270 | 3.2 | 9.7 | 0.00 | 0.00 | 0.00 | 78 | 1010.6 |
| 20260506205554 | 18 | 293 | 6.4 | 11.3 | 0.00 | 0.00 | 0.00 | 79 | 1010.5 |
| 20260506204611 | 18 | 68 | 3.2 | 8.0 | 0.00 | 0.00 | 0.00 | 78 | 1010.4 |
| 20260506203555 | 18 | 203 | 3.2 | 6.4 | 0.00 | 0.00 | 0.00 | 79 | 1010.3 |
| 20260506202611 | 18 | 68 | 4.8 | 9.7 | 0.00 | 0.00 | 0.00 | 79 | 1010.3 |
| 20260506200610 | 18 | 135 | 3.2 | 6.4 | 0.00 | 0.00 | 0.00 | 78 | 1010.5 |
| 20260506195554 | 18 | 248 | 1.6 | 6.4 | 0.00 | 0.00 | 0.00 | 78 | 1010.3 |
| 20260506194610 | 18 | 158 | 3.2 | 6.4 | 0.00 | 0.00 | 0.00 | 78 | 1010.1 |
| 20260506193554 | 18 | 23 | 3.2 | 6.4 | 0.00 | 0.00 | 0.00 | 78 | 1009.9 |
| 20260506192610 | 18 | 225 | 3.2 | 8.0 | 0.00 | 0.00 | 0.00 | 78 | 1009.8 |
| 20260506191553 | 18 | 90 | 3.2 | 6.4 | 0.00 | 0.00 | 0.00 | 79 | 1009.9 |
| 20260506190610 | 18 | 248 | 1.6 | 3.2 | 0.00 | 0.00 | 0.00 | 78 | 1009.8 |
| 20260506185555 | 18 | 315 | 3.2 | 8.0 | 0.00 | 0.00 | 0.00 | 78 | 1009.9 |
| 20260506184611 | 18 | 315 | 4.8 | 11.3 | 0.00 | 0.00 | 0.00 | 79 | 1009.6 |
| 20260506183555 | 18 | 270 | 3.2 | 6.4 | 0.00 | 0.00 | 0.00 | 78 | 1009.4 |
| 20260506181556 | 19 | 315 | 3.2 | 6.4 | 0.00 | 0.00 | 0.00 | 80 | 1009.4 |
| 20260506175554 | 18 | 293 | 6.4 | 8.0 | 0.00 | 0.00 | 0.00 | 80 | 1009.3 |
| 20260506174612 | 19 | 270 | 6.4 | 9.7 | 0.00 | 0.00 | 0.00 | 79 | 1009.3 |
| 20260506173554 | 19 | 293 | 6.4 | 9.7 | 0.00 | 0.00 | 0.00 | 78 | 1009.3 |
| 20260506172611 | 20 | 293 | 6.4 | 9.7 | 0.00 | 0.00 | 0.00 | 78 | 1009.1 |